Location: Unspecified
(0.0000°N, 0.0000°E)
Time: 07:23:06
(UTC+00:00)

Explorer 7 - All Passes

Search period start: 16 September 2014 00:00
Search period end: 26 September 2014 00:00
Orbit: 492 x 706 km, 50.3° (Epoch: 15 September)

Date Brightness Start Highest point End Pass type
(mag) Time Alt. Az. Time Alt. Az. Time Alt. Az.
16 Sep - 03:26:25 10° WNW 03:29:53 36° SW 03:33:27 10° SSE night (unlit)
16 Sep - 13:50:32 10° S 13:54:30 23° SE 13:58:27 10° ENE daylight
16 Sep - 15:30:57 10° WSW 15:35:21 30° NW 15:39:41 10° N daylight
17 Sep - 01:56:27 10° N 01:59:34 24° NE 02:02:42 10° ESE night (unlit)
17 Sep - 03:38:09 10° W 03:40:14 14° SW 03:42:20 10° SSW night (unlit)
17 Sep - 13:59:56 10° SSW 14:04:49 50° SE 14:09:40 10° NE daylight
17 Sep - 15:43:03 10° W 15:45:40 14° NW 15:48:16 10° NNW daylight
18 Sep - 02:06:06 10° NNW 02:09:51 69° NE 02:13:37 10° SE night (unlit)
18 Sep - 14:10:04 10° SW 14:15:06 74° NW 14:20:06 10° NNE daylight
19 Sep - 02:16:35 10° WNW 02:20:07 39° SW 02:23:41 10° SSE night (unlit)
19 Sep - 12:40:45 10° S 12:44:32 21° SE 12:48:20 10° ENE daylight
19 Sep - 14:20:52 10° WSW 14:25:23 33° NW 14:29:51 10° N daylight
20 Sep - 00:46:45 10° N 00:49:46 22° NE 00:52:46 10° ESE night (unlit)
20 Sep - 02:28:08 10° W 02:30:25 15° SW 02:32:43 10° SSW night (unlit)
20 Sep - 12:50:02 10° SSW 12:54:50 46° SE 12:59:39 10° NE daylight
20 Sep - 14:32:45 10° W 14:35:42 16° NW 14:38:38 10° NNW daylight
21 Sep - 00:56:17 10° NNW 01:00:03 62° NE 01:03:46 10° SE night (unlit)
21 Sep - 13:00:05 10° SW 13:05:06 80° NW 13:10:08 10° NNE daylight
22 Sep - 01:06:40 10° NW 01:10:18 43° SW 01:13:54 10° SSE night (unlit)
22 Sep - 11:30:58 10° S 11:34:32 20° SE 11:38:08 10° E daylight
22 Sep - 13:10:48 10° WSW 13:15:22 36° NW 13:19:57 10° NNE daylight
22 Sep - 23:36:59 10° N 23:39:55 21° NE 23:42:49 10° ESE night (unlit)
23 Sep - 01:18:04 10° W 01:20:33 17° SW 01:23:03 10° S night (unlit)
23 Sep - 11:40:08 10° SSW 11:44:48 42° SE 11:49:33 10° NE daylight
23 Sep - 13:22:29 10° W 13:25:40 17° NW 13:28:52 10° NNW daylight
23 Sep - 23:46:25 10° NNW 23:50:12 56° NE 23:53:54 10° SE night (unlit)
24 Sep - 11:50:06 10° SW 11:55:03 87° NW 12:00:06 10° NE daylight
24 Sep - 23:56:42 10° NW 00:00:26 49° SW 00:04:05 10° SSE night (unlit)
25 Sep - 10:21:13 10° S 10:24:29 18° SE 10:27:49 10° E daylight
25 Sep - 12:00:43 10° WSW 12:05:18 38° NW 12:09:59 10° NNE daylight
25 Sep - 22:27:09 10° N 22:30:01 19° NE 22:32:49 10° E night (unlit)
